| time (UTC) | temp F | wind direction | speed MPH | gust MPH | rain 1hr in | rain 24hr in | rain mn in | humidity % | barometer mb |
| 20260904120651 | 88 | 67 | 9.0 | 13.0 | 0.00 | 0.00 | 0.00 | 7 | 1014.4 |
| 20260904120614 | 88 | 67 | 9.0 | 13.0 | 0.00 | 0.00 | 0.00 | 7 | 1014.4 |
| 20260904120149 | 89 | 90 | 6.0 | 10.0 | 0.00 | 0.00 | 0.00 | 7 | 1014.3 |
| 20260904115654 | 88 | 112 | 7.0 | 10.0 | 0.00 | 0.00 | 0.00 | 7 | 1014.5 |
| 20260904115503 | 88 | 90 | 6.0 | 8.0 | 0.00 | 0.00 | 0.00 | 7 | 1014.4 |
| 20260904115048 | 88 | 90 | 8.0 | 10.0 | 0.00 | 0.00 | 0.00 | 7 | 1014.6 |
| 20260904114605 | 88 | 90 | 6.0 | 8.0 | 0.00 | 0.00 | 0.00 | 7 | 1014.6 |
| 20260904114131 | 87 | 67 | 8.0 | 12.0 | 0.00 | 0.00 | 0.00 | 7 | 1014.6 |
| 20260904113643 | 87 | 112 | 9.0 | 11.0 | 0.00 | 0.00 | 0.00 | 7 | 1014.6 |
| 20260904113155 | 86 | 90 | 8.0 | 11.0 | 0.00 | 0.00 | 0.00 | 7 | 1014.6 |
| 20260904112746 | 86 | 90 | 9.0 | 12.0 | 0.00 | 0.00 | 0.00 | 7 | 1014.7 |
| 20260904112350 | 86 | 112 | 9.0 | 13.0 | 0.00 | 0.00 | 0.00 | 7 | 1014.7 |
| 20260904112257 | 86 | 90 | 9.0 | 15.0 | 0.00 | 0.00 | 0.00 | 7 | 1014.8 |
| 20260904111903 | 86 | 135 | 10.0 | 15.0 | 0.00 | 0.00 | 0.00 | 7 | 1014.8 |
| 20260904111446 | 86 | 135 | 10.0 | 13.0 | 0.00 | 0.00 | 0.00 | 7 | 1014.8 |
| 20260904111354 | 87 | 135 | 7.0 | 12.0 | 0.00 | 0.00 | 0.00 | 7 | 1015.0 |
| 20260904111009 | 86 | 90 | 6.0 | 10.0 | 0.00 | 0.00 | 0.00 | 7 | 1014.9 |
| 20260904110524 | 86 | 90 | 8.0 | 15.0 | 0.00 | 0.00 | 0.00 | 7 | 1015.0 |
| 20260904110108 | 86 | 112 | 9.0 | 12.0 | 0.00 | 0.00 | 0.00 | 7 | 1015.1 |
| 20260904105700 | 85 | 90 | 11.0 | 15.0 | 0.00 | 0.00 | 0.00 | 7 | 1015.1 |
| 20260904105658 | 85 | 90 | 11.0 | 15.0 | 0.00 | 0.00 | 0.00 | 7 | 1015.1 |
| 20260904105319 | 86 | 112 | 7.0 | 13.0 | 0.00 | 0.00 | 0.00 | 7 | 1015.1 |
| 20260904104849 | 86 | 90 | 8.0 | 11.0 | 0.00 | 0.00 | 0.00 | 7 | 1015.1 |
| 20260904104438 | 86 | 67 | 6.0 | 9.0 | 0.00 | 0.00 | 0.00 | 7 | 1015.1 |
| 20260904104011 | 86 | 90 | 5.0 | 9.0 | 0.00 | 0.00 | 0.00 | 7 | 1015.2 |
| 20260904103559 | 86 | 112 | 5.0 | 9.0 | 0.00 | 0.00 | 0.00 | 7 | 1015.2 |
| 20260904103152 | 85 | 112 | 9.0 | 12.0 | 0.00 | 0.00 | 0.00 | 7 | 1015.3 |
| 20260904102700 | 86 | 90 | 7.0 | 11.0 | 0.00 | 0.00 | 0.00 | 7 | 1015.2 |
| 20260904102239 | 85 | 67 | 10.0 | 15.0 | 0.00 | 0.00 | 0.00 | 7 | 1015.4 |
| 20260904101754 | 85 | 112 | 8.0 | 10.0 | 0.00 | 0.00 | 0.00 | 8 | 1015.3 |
| 20260904101339 | 85 | 112 | 10.0 | 15.0 | 0.00 | 0.00 | 0.00 | 7 | 1015.5 |
| 20260904100934 | 86 | 90 | 6.0 | 9.0 | 0.00 | 0.00 | 0.00 | 7 | 1015.5 |
| 20260904100526 | 86 | 112 | 6.0 | 9.0 | 0.00 | 0.00 | 0.00 | 7 | 1015.5 |
| 20260904100107 | 86 | 90 | 8.0 | 10.0 | 0.00 | 0.00 | 0.00 | 7 | 1015.4 |
| 20260904095656 | 86 | 90 | 6.0 | 10.0 | 0.00 | 0.00 | 0.00 | 7 | 1015.5 |
| 20260904095239 | 87 | 90 | 6.0 | 10.0 | 0.00 | 0.00 | 0.00 | 7 | 1015.5 |
| 20260904094745 | 87 | 112 | 6.0 | 8.0 | 0.00 | 0.00 | 0.00 | 7 | 1015.6 |
| 20260904094341 | 88 | 67 | 2.0 | 4.0 | 0.00 | 0.00 | 0.00 | 7 | 1015.6 |
| 20260904093938 | 88 | 90 | 3.0 | 4.0 | 0.00 | 0.00 | 0.00 | 6 | 1015.7 |
| 20260904093529 | 88 | 67 | 2.0 | 3.0 | 0.00 | 0.00 | 0.00 | 6 | 1015.6 |
| 20260904093113 | 88 | 90 | 1.0 | 3.0 | 0.00 | 0.00 | 0.00 | 6 | 1015.5 |
| 20260904092704 | 87 | 0 | 0.0 | 0.0 | 0.00 | 0.00 | 0.00 | 6 | 1015.6 |
| 20260904092338 | 87 | 225 | 0.0 | 1.0 | 0.00 | 0.00 | 0.00 | 6 | 1015.5 |
| 20260904092212 | 87 | 135 | 0.0 | 2.0 | 0.00 | 0.00 | 0.00 | 6 | 1015.5 |
| 20260904091850 | 87 | 0 | 0.0 | 1.0 | 0.00 | 0.00 | 0.00 | 6 | 1015.5 |
| 20260904091348 | 86 | 45 | 0.0 | 1.0 | 0.00 | 0.00 | 0.00 | 6 | 1015.6 |
| 20260904090942 | 87 | 112 | 0.0 | 1.0 | 0.00 | 0.00 | 0.00 | 6 | 1015.6 |
| 20260904090514 | 86 | 90 | 1.0 | 3.0 | 0.00 | 0.00 | 0.00 | 7 | 1015.7 |
| 20260904085654 | 86 | 67 | 3.0 | 4.0 | 0.00 | 0.00 | 0.00 | 7 | 1015.6 |
| 20260904085652 | 86 | 67 | 3.0 | 4.0 | 0.00 | 0.00 | 0.00 | 7 | 1015.6 |
| 20260904085354 | 85 | 0 | 0.0 | 0.0 | 0.00 | 0.00 | 0.00 | 7 | 1015.6 |
| 20260904084951 | 85 | 67 | 3.0 | 6.0 | 0.00 | 0.00 | 0.00 | 7 | 1015.7 |
| 20260904084531 | 86 | 90 | 2.0 | 3.0 | 0.00 | 0.00 | 0.00 | 7 | 1015.6 |
| 20260904084125 | 86 | 0 | 0.0 | 1.0 | 0.00 | 0.00 | 0.00 | 7 | 1015.6 |
| 20260904083706 | 85 | 135 | 0.0 | 1.0 | 0.00 | 0.00 | 0.00 | 7 | 1015.4 |
| 20260904083240 | 85 | 315 | 1.0 | 2.0 | 0.00 | 0.00 | 0.00 | 7 | 1015.6 |
| 20260904082746 | 85 | 0 | 0.0 | 1.0 | 0.00 | 0.00 | 0.00 | 7 | 1015.5 |
| 20260904082501 | 85 | 0 | 0.0 | 1.0 | 0.00 | 0.00 | 0.00 | 7 | 1015.5 |
| 20260904082415 | 85 | 0 | 0.0 | 1.0 | 0.00 | 0.00 | 0.00 | 7 | 1015.5 |
| 20260904081952 | 85 | 0 | 0.0 | 1.0 | 0.00 | 0.00 | 0.00 | 7 | 1015.3 |
| 20260904081536 | 84 | 90 | 1.0 | 2.0 | 0.00 | 0.00 | 0.00 | 7 | 1015.5 |
| 20260904081502 | 84 | 90 | 1.0 | 2.0 | 0.00 | 0.00 | 0.00 | 7 | 1015.5 |
| 20260904081033 | 84 | 315 | 0.0 | 1.0 | 0.00 | 0.00 | 0.00 | 7 | 1015.5 |
| 20260904080648 | 84 | 180 | 0.0 | 1.0 | 0.00 | 0.00 | 0.00 | 7 | 1015.4 |
| 20260904080615 | 84 | 180 | 0.0 | 1.0 | 0.00 | 0.00 | 0.00 | 7 | 1015.4 |
| 20260904080150 | 82 | 0 | 0.0 | 0.0 | 0.00 | 0.00 | 0.00 | 8 | 1015.4 |
| 20260904075655 | 81 | 270 | 0.0 | 2.0 | 0.00 | 0.00 | 0.00 | 8 | 1015.4 |
| 20260904075412 | 81 | 270 | 2.0 | 3.0 | 0.00 | 0.00 | 0.00 | 8 | 1015.4 |
| 20260904075324 | 81 | 270 | 2.0 | 2.0 | 0.00 | 0.00 | 0.00 | 8 | 1015.4 |
| 20260904074937 | 81 | 270 | 2.0 | 3.0 | 0.00 | 0.00 | 0.00 | 8 | 1015.4 |
| 20260904074514 | 82 | 270 | 2.0 | 2.0 | 0.00 | 0.00 | 0.00 | 8 | 1015.4 |
| 20260904074447 | 82 | 270 | 0.0 | 2.0 | 0.00 | 0.00 | 0.00 | 8 | 1015.5 |
| 20260904074048 | 82 | 0 | 0.0 | 1.0 | 0.00 | 0.00 | 0.00 | 8 | 1015.5 |
| 20260904073600 | 82 | 0 | 0.0 | 1.0 | 0.00 | 0.00 | 0.00 | 8 | 1015.4 |
| 20260904073134 | 81 | 247 | 0.0 | 1.0 | 0.00 | 0.00 | 0.00 | 8 | 1015.5 |
| 20260904072709 | 80 | 247 | 0.0 | 1.0 | 0.00 | 0.00 | 0.00 | 8 | 1015.5 |
| 20260904072316 | 79 | 0 | 0.0 | 1.0 | 0.00 | 0.00 | 0.00 | 8 | 1015.8 |
| 20260904072219 | 78 | 0 | 0.0 | 1.0 | 0.00 | 0.00 | 0.00 | 8 | 1015.8 |
| 20260904071729 | 78 | 315 | 0.0 | 1.0 | 0.00 | 0.00 | 0.00 | 8 | 1015.7 |
| 20260904071444 | 78 | 292 | 2.0 | 2.0 | 0.00 | 0.00 | 0.00 | 8 | 1015.7 |
| 20260904071252 | 78 | 0 | 0.0 | 0.0 | 0.00 | 0.00 | 0.00 | 9 | 1015.8 |
| 20260904070839 | 77 | 292 | 1.0 | 1.0 | 0.00 | 0.00 | 0.00 | 9 | 1015.8 |
| 20260904070452 | 77 | 292 | 1.0 | 1.0 | 0.00 | 0.00 | 0.00 | 9 | 1015.8 |
| 20260904070414 | 77 | 292 | 1.0 | 1.0 | 0.00 | 0.00 | 0.00 | 9 | 1015.8 |
| 20260904065929 | 76 | 292 | 1.0 | 2.0 | 0.00 | 0.00 | 0.00 | 9 | 1015.8 |
| 20260904065529 | 76 | 292 | 1.0 | 2.0 | 0.00 | 0.00 | 0.00 | 9 | 1015.8 |
| 20260904065502 | 76 | 292 | 1.0 | 2.0 | 0.00 | 0.00 | 0.00 | 9 | 1015.8 |
| 20260904065048 | 76 | 292 | 1.0 | 1.0 | 0.00 | 0.00 | 0.00 | 9 | 1016.0 |
| 20260904064609 | 76 | 292 | 0.0 | 1.0 | 0.00 | 0.00 | 0.00 | 9 | 1015.9 |
| 20260904064546 | 75 | 292 | 0.0 | 1.0 | 0.00 | 0.00 | 0.00 | 9 | 1015.8 |
| 20260904064149 | 75 | 292 | 1.0 | 1.0 | 0.00 | 0.00 | 0.00 | 9 | 1015.8 |
| 20260904063726 | 75 | 292 | 1.0 | 1.0 | 0.00 | 0.00 | 0.00 | 9 | 1015.8 |
| 20260904063700 | 75 | 292 | 1.0 | 1.0 | 0.00 | 0.00 | 0.00 | 9 | 1015.8 |
| 20260904063232 | 75 | 0 | 0.0 | 0.0 | 0.00 | 0.00 | 0.00 | 9 | 1015.9 |
| 20260904062743 | 74 | 270 | 1.0 | 2.0 | 0.00 | 0.00 | 0.00 | 9 | 1016.0 |
| 20260904062522 | 74 | 270 | 2.0 | 3.0 | 0.00 | 0.00 | 0.00 | 9 | 1016.0 |
| 20260904062348 | 74 | 270 | 2.0 | 3.0 | 0.00 | 0.00 | 0.00 | 9 | 1015.9 |
| 20260904061946 | 74 | 270 | 2.0 | 2.0 | 0.00 | 0.00 | 0.00 | 9 | 1015.8 |
| 20260904061541 | 74 | 292 | 1.0 | 2.0 | 0.00 | 0.00 | 0.00 | 9 | 1015.9 |
| 20260904061103 | 73 | 292 | 2.0 | 3.0 | 0.00 | 0.00 | 0.00 | 9 | 1015.8 |
| 20260904060614 | 73 | 270 | 2.0 | 3.0 | 0.00 | 0.00 | 0.00 | 9 | 1015.9 |
| 20260904060146 | 73 | 270 | 1.0 | 2.0 | 0.00 | 0.00 | 0.00 | 9 | 1015.7 |
| 20260904055656 | 73 | 292 | 1.0 | 2.0 | 0.00 | 0.00 | 0.00 | 9 | 1015.7 |
| 20260904055428 | 73 | 292 | 1.0 | 2.0 | 0.00 | 0.00 | 0.00 | 9 | 1015.8 |
| 20260904055259 | 73 | 292 | 1.0 | 2.0 | 0.00 | 0.00 | 0.00 | 9 | 1015.9 |
| 20260904054854 | 73 | 315 | 1.0 | 2.0 | 0.00 | 0.00 | 0.00 | 9 | 1015.8 |
| 20260904054425 | 74 | 292 | 1.0 | 2.0 | 0.00 | 0.00 | 0.00 | 9 | 1015.8 |
| 20260904053939 | 73 | 292 | 1.0 | 2.0 | 0.00 | 0.00 | 0.00 | 9 | 1015.7 |
| 20260904053514 | 73 | 315 | 1.0 | 2.0 | 0.00 | 0.00 | 0.00 | 9 | 1015.8 |
| 20260904053102 | 73 | 0 | 0.0 | 0.0 | 0.00 | 0.00 | 0.00 | 9 | 1015.7 |
| 20260904052654 | 73 | 0 | 0.0 | 0.0 | 0.00 | 0.00 | 0.00 | 9 | 1015.6 |
| 20260904052428 | 74 | 0 | 0.0 | 0.0 | 0.00 | 0.00 | 0.00 | 9 | 1015.6 |
| 20260904051942 | 73 | 292 | 0.0 | 1.0 | 0.00 | 0.00 | 0.00 | 9 | 1015.6 |
| 20260904051635 | 73 | 292 | 1.0 | 1.0 | 0.00 | 0.00 | 0.00 | 9 | 1015.9 |
| 20260904051451 | 73 | 292 | 1.0 | 2.0 | 0.00 | 0.00 | 0.00 | 9 | 1015.8 |
| 20260904051021 | 74 | 292 | 1.0 | 2.0 | 0.00 | 0.00 | 0.00 | 9 | 1015.7 |
| 20260904050635 | 74 | 270 | 2.0 | 3.0 | 0.00 | 0.00 | 0.00 | 9 | 1015.8 |
| 20260904050603 | 74 | 270 | 2.0 | 3.0 | 0.00 | 0.00 | 0.00 | 9 | 1015.8 |
| 20260904050139 | 74 | 270 | 2.0 | 3.0 | 0.00 | 0.00 | 0.00 | 9 | 1015.8 |
| 20260904045645 | 75 | 270 | 2.0 | 2.0 | 0.00 | 0.00 | 0.00 | 9 | 1015.7 |
| 20260904045416 | 75 | 270 | 2.0 | 2.0 | 0.00 | 0.00 | 0.00 | 9 | 1015.7 |
| 20260904045350 | 75 | 270 | 2.0 | 3.0 | 0.00 | 0.00 | 0.00 | 9 | 1015.7 |
| 20260904044933 | 75 | 270 | 2.0 | 3.0 | 0.00 | 0.00 | 0.00 | 9 | 1015.8 |
| 20260904044521 | 75 | 270 | 2.0 | 3.0 | 0.00 | 0.00 | 0.00 | 9 | 1015.8 |
| 20260904044037 | 75 | 292 | 2.0 | 3.0 | 0.00 | 0.00 | 0.00 | 9 | 1015.7 |
| 20260904043620 | 75 | 0 | 0.0 | 0.0 | 0.00 | 0.00 | 0.00 | 9 | 1015.8 |
| 20260904043155 | 75 | 0 | 0.0 | 0.0 | 0.00 | 0.00 | 0.00 | 9 | 1015.7 |
| 20260904042701 | 75 | 292 | 1.0 | 1.0 | 0.00 | 0.00 | 0.00 | 9 | 1015.5 |
| 20260904042402 | 75 | 292 | 1.0 | 2.0 | 0.00 | 0.00 | 0.00 | 9 | 1015.6 |
| 20260904042255 | 75 | 292 | 1.0 | 2.0 | 0.00 | 0.00 | 0.00 | 9 | 1015.8 |
| 20260904041923 | 75 | 292 | 2.0 | 2.0 | 0.00 | 0.00 | 0.00 | 9 | 1015.6 |
| 20260904041438 | 75 | 292 | 2.0 | 3.0 | 0.00 | 0.00 | 0.00 | 9 | 1015.6 |
| 20260904041350 | 75 | 292 | 2.0 | 3.0 | 0.00 | 0.00 | 0.00 | 9 | 1015.7 |
| 20260904041014 | 76 | 292 | 2.0 | 2.0 | 0.00 | 0.00 | 0.00 | 9 | 1015.7 |
| 20260904040544 | 76 | 292 | 1.0 | 2.0 | 0.00 | 0.00 | 0.00 | 9 | 1015.7 |
| 20260904040109 | 76 | 0 | 0.0 | 0.0 | 0.00 | 0.00 | 0.00 | 9 | 1015.7 |
| 20260904035633 | 76 | 270 | 0.0 | 1.0 | 0.00 | 0.00 | 0.00 | 9 | 1015.7 |
| 20260904035245 | 76 | 0 | 0.0 | 1.0 | 0.00 | 0.00 | 0.00 | 9 | 1015.9 |
| 20260904034756 | 77 | 0 | 0.0 | 0.0 | 0.00 | 0.00 | 0.00 | 9 | 1015.8 |
| 20260904034305 | 77 | 270 | 1.0 | 2.0 | 0.00 | 0.00 | 0.00 | 9 | 1015.8 |
| 20260904033840 | 77 | 292 | 1.0 | 1.0 | 0.00 | 0.00 | 0.00 | 9 | 1015.9 |
| 20260904033417 | 78 | 270 | 1.0 | 1.0 | 0.00 | 0.00 | 0.00 | 9 | 1015.7 |
| 20260904032942 | 78 | 270 | 1.0 | 1.0 | 0.00 | 0.00 | 0.00 | 9 | 1015.8 |
| 20260904032505 | 78 | 292 | 1.0 | 2.0 | 0.00 | 0.00 | 0.00 | 9 | 1015.7 |
| 20260904032045 | 78 | 270 | 1.0 | 2.0 | 0.00 | 0.00 | 0.00 | 9 | 1015.8 |
| 20260904031614 | 0 | 0 | 0.0 | 0.0 | 0.00 | 0.00 | 0.00 | 100 | |
| 20260904031140 | 0 | 0 | 0.0 | 0.0 | 0.00 | 0.00 | 0.00 | 100 | |
| 20260904030715 | 0 | 0 | 0.0 | 0.0 | 0.00 | 0.00 | 0.00 | 100 | |
| 20260904030310 | 0 | 0 | 0.0 | 0.0 | 0.00 | 0.00 | 0.00 | 100 | |
| 20260904025845 | 0 | 0 | 0.0 | 0.0 | 0.00 | 0.00 | 0.00 | 100 | |
| 20260904025413 | 78 | 315 | 3.0 | 3.0 | 0.00 | 0.00 | 0.00 | 9 | 1016.2 |
| 20260904025014 | 78 | 315 | 3.0 | 3.0 | 0.00 | 0.00 | 0.00 | 9 | 1015.9 |
| 20260904024552 | 78 | 315 | 3.0 | 3.0 | 0.00 | 0.00 | 0.00 | 9 | 1016.1 |
| 20260904024134 | 78 | 315 | 2.0 | 2.0 | 0.00 | 0.00 | 0.00 | 9 | 1016.1 |
| 20260904023700 | 78 | 315 | 2.0 | 2.0 | 0.00 | 0.00 | 0.00 | 9 | 1016.2 |
| 20260904023245 | 78 | 315 | 2.0 | 2.0 | 0.00 | 0.00 | 0.00 | 9 | 1016.3 |
| 20260904022819 | 0 | 0 | 0.0 | 0.0 | 0.00 | 0.00 | 0.00 | 100 | |
| 20260904022406 | 78 | 337 | 1.0 | 1.0 | 0.00 | 0.00 | 0.00 | 9 | 1016.1 |
| 20260904021924 | 78 | 337 | 1.0 | 1.0 | 0.00 | 0.00 | 0.00 | 9 | 1016.2 |
| 20260904021503 | 0 | 0 | 0.0 | 0.0 | 0.00 | 0.00 | 0.00 | 100 | |
| 20260904021040 | 0 | 0 | 0.0 | 0.0 | 0.00 | 0.00 | 0.00 | 100 | |
| 20260904020605 | 0 | 0 | 0.0 | 0.0 | 0.00 | 0.00 | 0.00 | 100 | |
| 20260904020153 | 0 | 0 | 0.0 | 0.0 | 0.00 | 0.00 | 0.00 | 100 | |
| 20260904015735 | 79 | 337 | 1.0 | 2.0 | 0.00 | 0.00 | 0.00 | 8 | 1016.2 |
| 20260904015245 | 79 | 337 | 1.0 | 2.0 | 0.00 | 0.00 | 0.00 | 8 | 1016.2 |
| 20260904014819 | 79 | 337 | 2.0 | 3.0 | 0.00 | 0.00 | 0.00 | 8 | 1016.2 |
| 20260904014340 | 79 | 315 | 4.0 | 6.0 | 0.00 | 0.00 | 0.00 | 8 | 1016.2 |
| 20260904013850 | 0 | 0 | 0.0 | 0.0 | 0.00 | 0.00 | 0.00 | 100 | |
| 20260904013419 | 0 | 0 | 0.0 | 0.0 | 0.00 | 0.00 | 0.00 | 100 | |
| 20260904012955 | 0 | 0 | 0.0 | 0.0 | 0.00 | 0.00 | 0.00 | 100 | |
| 20260904012530 | 0 | 0 | 0.0 | 0.0 | 0.00 | 0.00 | 0.00 | 100 | |
| 20260904012119 | 79 | 315 | 2.0 | 2.0 | 0.00 | 0.00 | 0.00 | 9 | 1016.3 |
| 20260904011630 | 79 | 315 | 2.0 | 2.0 | 0.00 | 0.00 | 0.00 | 9 | 1016.4 |
| 20260904011153 | 79 | 292 | 3.0 | 3.0 | 0.00 | 0.00 | 0.00 | 9 | 1016.4 |
| 20260904010740 | 79 | 315 | 2.0 | 3.0 | 0.00 | 0.00 | 0.00 | 9 | 1016.6 |
| 20260904010315 | 79 | 315 | 3.0 | 4.0 | 0.00 | 0.00 | 0.00 | 9 | 1016.6 |
| 20260904005855 | 79 | 315 | 3.0 | 4.0 | 0.00 | 0.00 | 0.00 | 9 | 1016.7 |
| 20260904005415 | 78 | 292 | 4.0 | 6.0 | 0.00 | 0.00 | 0.00 | 9 | 1016.6 |
| 20260904004919 | 0 | 0 | 0.0 | 0.0 | 0.00 | 0.00 | 0.00 | 100 | |
| 20260904004501 | 0 | 0 | 0.0 | 0.0 | 0.00 | 0.00 | 0.00 | 100 | |
| 20260904004018 | 0 | 0 | 0.0 | 0.0 | 0.00 | 0.00 | 0.00 | 100 | |
| 20260904003600 | 0 | 0 | 0.0 | 0.0 | 0.00 | 0.00 | 0.00 | 100 | |
| 20260904003135 | 0 | 0 | 0.0 | 0.0 | 0.00 | 0.00 | 0.00 | 100 | |
| 20260904002640 | 0 | 0 | 0.0 | 0.0 | 0.00 | 0.00 | 0.00 | 100 | |
| 20260904002440 | 0 | 0 | 0.0 | 0.0 | 0.00 | 0.00 | 0.00 | 100 | |
| 20260904002010 | 0 | 0 | 0.0 | 0.0 | 0.00 | 0.00 | 0.00 | 100 | |
| 20260904001601 | 0 | 0 | 0.0 | 0.0 | 0.00 | 0.00 | 0.00 | 100 | |
| 20260904001526 | 0 | 0 | 0.0 | 0.0 | 0.00 | 0.00 | 0.00 | 100 | |
| 20260904001103 | 0 | 0 | 0.0 | 0.0 | 0.00 | 0.00 | 0.00 | 100 | |
| 20260904000646 | 0 | 0 | 0.0 | 0.0 | 0.00 | 0.00 | 0.00 | 100 | |
| 20260904000615 | 0 | 0 | 0.0 | 0.0 | 0.00 | 0.00 | 0.00 | 100 | |
| 20260904000147 | 0 | 0 | 0.0 | 0.0 | 0.00 | 0.00 | 0.00 | 100 | |
| 20260903235655 | 0 | 0 | 0.0 | 0.0 | 0.00 | 0.00 | 0.00 | 100 | |
| 20260903235414 | 0 | 0 | 0.0 | 0.0 | 0.00 | 0.00 | 0.00 | 100 | |
| 20260903235022 | 0 | 0 | 0.0 | 0.0 | 0.00 | 0.00 | 0.00 | 100 | |
| 20260903234526 | 0 | 0 | 0.0 | 0.0 | 0.00 | 0.00 | 0.00 | 100 | |
| 20260903234057 | 0 | 0 | 0.0 | 0.0 | 0.00 | 0.00 | 0.00 | 100 | |
| 20260903233627 | 0 | 0 | 0.0 | 0.0 | 0.00 | 0.00 | 0.00 | 100 | |
| 20260903233155 | 0 | 0 | 0.0 | 0.0 | 0.00 | 0.00 | 0.00 | 100 | |
| 20260903232701 | 0 | 0 | 0.0 | 0.0 | 0.00 | 0.00 | 0.00 | 100 | |
| 20260903232659 | 0 | 0 | 0.0 | 0.0 | 0.00 | 0.00 | 0.00 | 100 | |
| 20260903232411 | 0 | 0 | 0.0 | 0.0 | 0.00 | 0.00 | 0.00 | 100 | |
| 20260903232224 | 0 | 0 | 0.0 | 0.0 | 0.00 | 0.00 | 0.00 | 100 | |
| 20260903231929 | 0 | 0 | 0.0 | 0.0 | 0.00 | 0.00 | 0.00 | 100 | |
| 20260903231439 | 0 | 0 | 0.0 | 0.0 | 0.00 | 0.00 | 0.00 | 100 | |
| 20260903231329 | 0 | 0 | 0.0 | 0.0 | 0.00 | 0.00 | 0.00 | 100 | |
| 20260903231006 | 0 | 0 | 0.0 | 0.0 | 0.00 | 0.00 | 0.00 | 100 | |
| 20260903230512 | 0 | 0 | 0.0 | 0.0 | 0.00 | 0.00 | 0.00 | 100 | |
| 20260903230455 | 0 | 0 | 0.0 | 0.0 | 0.00 | 0.00 | 0.00 | 100 | |
| 20260903230044 | 0 | 0 | 0.0 | 0.0 | 0.00 | 0.00 | 0.00 | 100 | |
| 20260903225635 | 0 | 0 | 0.0 | 0.0 | 0.00 | 0.00 | 0.00 | 100 | |
| 20260903225430 | 0 | 0 | 0.0 | 0.0 | 0.00 | 0.00 | 0.00 | 100 | |
| 20260903224945 | 0 | 0 | 0.0 | 0.0 | 0.00 | 0.00 | 0.00 | 100 | |
| 20260903224500 | 0 | 0 | 0.0 | 0.0 | 0.00 | 0.00 | 0.00 | 100 | |
| 20260903224005 | 0 | 0 | 0.0 | 0.0 | 0.00 | 0.00 | 0.00 | 100 | |
| 20260903223530 | 0 | 0 | 0.0 | 0.0 | 0.00 | 0.00 | 0.00 | 100 | |
| 20260903223103 | 0 | 0 | 0.0 | 0.0 | 0.00 | 0.00 | 0.00 | 100 | |
| 20260903222655 | 0 | 0 | 0.0 | 0.0 | 0.00 | 0.00 | 0.00 | 100 | |
| 20260903222528 | 0 | 0 | 0.0 | 0.0 | 0.00 | 0.00 | 0.00 | 100 | |
| 20260903222349 | 0 | 0 | 0.0 | 0.0 | 0.00 | 0.00 | 0.00 | 100 | |
| 20260903222052 | 0 | 0 | 0.0 | 0.0 | 0.00 | 0.00 | 0.00 | 100 | |
| 20260903221603 | 0 | 0 | 0.0 | 0.0 | 0.00 | 0.00 | 0.00 | 100 | |
| 20260903221524 | 0 | 0 | 0.0 | 0.0 | 0.00 | 0.00 | 0.00 | 100 | |
| 20260903221132 | 0 | 0 | 0.0 | 0.0 | 0.00 | 0.00 | 0.00 | 100 | |
| 20260903220620 | 0 | 0 | 0.0 | 0.0 | 0.00 | 0.00 | 0.00 | 100 | |
| 20260903220210 | 0 | 0 | 0.0 | 0.0 | 0.00 | 0.00 | 0.00 | 100 | |
| 20260903215804 | 0 | 0 | 0.0 | 0.0 | 0.00 | 0.00 | 0.00 | 100 | |
| 20260903215410 | 0 | 0 | 0.0 | 0.0 | 0.00 | 0.00 | 0.00 | 100 | |
| 20260903215029 | 0 | 0 | 0.0 | 0.0 | 0.00 | 0.00 | 0.00 | 100 | |
| 20260903214934 | 0 | 0 | 0.0 | 0.0 | 0.00 | 0.00 | 0.00 | 100 | |
| 20260903214439 | 0 | 0 | 0.0 | 0.0 | 0.00 | 0.00 | 0.00 | 100 | |
| 20260903214141 | 0 | 0 | 0.0 | 0.0 | 0.00 | 0.00 | 0.00 | 100 | |
| 20260903213953 | 0 | 0 | 0.0 | 0.0 | 0.00 | 0.00 | 0.00 | 100 | |
| 20260903213524 | 0 | 0 | 0.0 | 0.0 | 0.00 | 0.00 | 0.00 | 100 | |
| 20260903213259 | 0 | 0 | 0.0 | 0.0 | 0.00 | 0.00 | 0.00 | 100 | |
| 20260903213123 | 78 | 315 | 1.0 | 2.0 | 0.00 | 0.00 | 0.00 | 9 | 1017.3 |
| 20260903212642 | 78 | 315 | 1.0 | 2.0 | 0.00 | 0.00 | 0.00 | 9 | 1017.2 |
| 20260903212311 | 78 | 315 | 1.0 | 2.0 | 0.00 | 0.00 | 0.00 | 9 | 1017.3 |
| 20260903212212 | 78 | 315 | 1.0 | 2.0 | 0.00 | 0.00 | 0.00 | 9 | 1017.2 |
| 20260903211722 | 0 | 0 | 0.0 | 0.0 | 0.00 | 0.00 | 0.00 | 100 | |
| 20260903211404 | 0 | 0 | 0.0 | 0.0 | 0.00 | 0.00 | 0.00 | 100 | |
| 20260903211307 | 0 | 0 | 0.0 | 0.0 | 0.00 | 0.00 | 0.00 | 100 | |
| 20260903210903 | 0 | 0 | 0.0 | 0.0 | 0.00 | 0.00 | 0.00 | 100 | |
| 20260903210455 | 78 | 292 | 2.0 | 3.0 | 0.00 | 0.00 | 0.00 | 9 | 1017.5 |
| 20260903210036 | 78 | 292 | 2.0 | 3.0 | 0.00 | 0.00 | 0.00 | 9 | 1017.4 |
| 20260903205622 | 78 | 292 | 2.0 | 2.0 | 0.00 | 0.00 | 0.00 | 9 | 1017.4 |
| 20260903205421 | 78 | 270 | 3.0 | 3.0 | 0.00 | 0.00 | 0.00 | 9 | 1017.3 |
| 20260903204942 | 78 | 270 | 1.0 | 3.0 | 0.00 | 0.00 | 0.00 | 9 | 1017.3 |
| 20260903204459 | 78 | 0 | 0.0 | 0.0 | 0.00 | 0.00 | 0.00 | 9 | 1017.5 |
| 20260903204035 | 78 | 0 | 0.0 | 0.0 | 0.00 | 0.00 | 0.00 | 9 | 1017.5 |
| 20260903203615 | 78 | 90 | 1.0 | 2.0 | 0.00 | 0.00 | 0.00 | 9 | 1017.4 |
| 20260903203150 | 78 | 90 | 1.0 | 2.0 | 0.00 | 0.00 | 0.00 | 9 | 1017.3 |
| 20260903202656 | 78 | 90 | 2.0 | 2.0 | 0.00 | 0.00 | 0.00 | 9 | 1017.2 |
| 20260903202350 | 78 | 90 | 1.0 | 2.0 | 0.00 | 0.00 | 0.00 | 9 | 1017.2 |
| 20260903201901 | 78 | 90 | 2.0 | 3.0 | 0.00 | 0.00 | 0.00 | 9 | 1017.0 |
| 20260903201439 | 78 | 112 | 3.0 | 3.0 | 0.00 | 0.00 | 0.00 | 9 | 1017.1 |
| 20260903201014 | 78 | 90 | 3.0 | 4.0 | 0.00 | 0.00 | 0.00 | 9 | 1017.0 |
| 20260903200602 | 79 | 90 | 2.0 | 4.0 | 0.00 | 0.00 | 0.00 | 9 | 1016.8 |
| 20260903200154 | 79 | 90 | 2.0 | 4.0 | 0.00 | 0.00 | 0.00 | 9 | 1017.0 |
| 20260903195702 | 79 | 90 | 3.0 | 4.0 | 0.00 | 0.00 | 0.00 | 9 | 1016.9 |
| 20260903195500 | 79 | 90 | 2.0 | 3.0 | 0.00 | 0.00 | 0.00 | 9 | 1016.8 |
| 20260903195306 | 79 | 90 | 3.0 | 3.0 | 0.00 | 0.00 | 0.00 | 9 | 1016.9 |
| 20260903194859 | 79 | 90 | 1.0 | 2.0 | 0.00 | 0.00 | 0.00 | 9 | 1016.7 |
| 20260903194535 | 79 | 112 | 3.0 | 4.0 | 0.00 | 0.00 | 0.00 | 9 | 1016.7 |
| 20260903194438 | 79 | 90 | 4.0 | 6.0 | 0.00 | 0.00 | 0.00 | 9 | 1016.7 |
| 20260903194034 | 79 | 67 | 3.0 | 4.0 | 0.00 | 0.00 | 0.00 | 9 | 1016.7 |
| 20260903193648 | 79 | 90 | 3.0 | 4.0 | 0.00 | 0.00 | 0.00 | 9 | 1016.5 |
| 20260903193614 | 79 | 90 | 3.0 | 4.0 | 0.00 | 0.00 | 0.00 | 9 | 1016.5 |
| 20260903193149 | 79 | 112 | 3.0 | 4.0 | 0.00 | 0.00 | 0.00 | 9 | 1016.4 |
| 20260903192655 | 80 | 90 | 3.0 | 4.0 | 0.00 | 0.00 | 0.00 | 9 | 1016.5 |
| 20260903192525 | 80 | 90 | 3.0 | 4.0 | 0.00 | 0.00 | 0.00 | 9 | 1016.5 |
| 20260903192434 | 80 | 90 | 3.0 | 6.0 | 0.00 | 0.00 | 0.00 | 9 | 1016.3 |
| 20260903192018 | 80 | 112 | 3.0 | 4.0 | 0.00 | 0.00 | 0.00 | 9 | 1016.3 |
| 20260903191603 | 80 | 112 | 5.0 | 8.0 | 0.00 | 0.00 | 0.00 | 9 | 1016.3 |
| 20260903191532 | 80 | 112 | 5.0 | 8.0 | 0.00 | 0.00 | 0.00 | 9 | 1016.3 |
| 20260903191105 | 80 | 112 | 3.0 | 6.0 | 0.00 | 0.00 | 0.00 | 9 | 1016.3 |
| 20260903190615 | 80 | 112 | 6.0 | 6.0 | 0.00 | 0.00 | 0.00 | 9 | 1016.1 |
| 20260903190147 | 80 | 67 | 4.0 | 6.0 | 0.00 | 0.00 | 0.00 | 9 | 1016.0 |
| 20260903185700 | 80 | 90 | 5.0 | 6.0 | 0.00 | 0.00 | 0.00 | 9 | 1016.0 |
| 20260903185541 | 80 | 90 | 5.0 | 6.0 | 0.00 | 0.00 | 0.00 | 9 | 1016.0 |
| 20260903185043 | 80 | 112 | 3.0 | 6.0 | 0.00 | 0.00 | 0.00 | 9 | 1015.9 |
| 20260903184556 | 80 | 90 | 6.0 | 9.0 | 0.00 | 0.00 | 0.00 | 9 | 1015.8 |
| 20260903184111 | 79 | 90 | 6.0 | 8.0 | 0.00 | 0.00 | 0.00 | 9 | 1015.7 |
| 20260903183621 | 79 | 112 | 5.0 | 8.0 | 0.00 | 0.00 | 0.00 | 9 | 1015.8 |
| 20260903183152 | 80 | 112 | 3.0 | 6.0 | 0.00 | 0.00 | 0.00 | 9 | 1015.7 |
| 20260903182704 | 80 | 112 | 8.0 | 11.0 | 0.00 | 0.00 | 0.00 | 9 | 1015.7 |
| 20260903182424 | 79 | 112 | 7.0 | 10.0 | 0.00 | 0.00 | 0.00 | 9 | 1015.6 |
| 20260903181952 | 80 | 90 | 6.0 | 10.0 | 0.00 | 0.00 | 0.00 | 9 | 1015.7 |
| 20260903181524 | 80 | 112 | 7.0 | 10.0 | 0.00 | 0.00 | 0.00 | 9 | 1015.7 |
| 20260903181500 | 80 | 90 | 9.0 | 11.0 | 0.00 | 0.00 | 0.00 | 9 | 1015.6 |
| 20260903181027 | 80 | 67 | 9.0 | 12.0 | 0.00 | 0.00 | 0.00 | 8 | 1015.6 |
| 20260903180524 | 80 | 135 | 5.0 | 9.0 | 0.00 | 0.00 | 0.00 | 8 | 1015.6 |
| 20260903180107 | 80 | 90 | 6.0 | 10.0 | 0.00 | 0.00 | 0.00 | 8 | 1015.5 |
| 20260903175657 | 80 | 90 | 8.0 | 13.0 | 0.00 | 0.00 | 0.00 | 8 | 1015.4 |
| 20260903175552 | 80 | 90 | 8.0 | 13.0 | 0.00 | 0.00 | 0.00 | 8 | 1015.4 |
| 20260903175354 | 80 | 67 | 7.0 | 10.0 | 0.00 | 0.00 | 0.00 | 8 | 1015.4 |
| 20260903174946 | 80 | 112 | 9.0 | 13.0 | 0.00 | 0.00 | 0.00 | 8 | 1015.5 |
| 20260903174627 | 81 | 90 | 8.0 | 12.0 | 0.00 | 0.00 | 0.00 | 8 | 1015.4 |
| 20260903174537 | 80 | 112 | 10.0 | 15.0 | 0.00 | 0.00 | 0.00 | 8 | 1015.3 |
| 20260903174059 | 81 | 90 | 8.0 | 12.0 | 0.00 | 0.00 | 0.00 | 8 | 1015.4 |
| 20260903173729 | 81 | 67 | 11.0 | 15.0 | 0.00 | 0.00 | 0.00 | 8 | 1015.3 |
| 20260903173645 | 81 | 67 | 11.0 | 15.0 | 0.00 | 0.00 | 0.00 | 8 | 1015.3 |
| 20260903173237 | 81 | 67 | 11.0 | 15.0 | 0.00 | 0.00 | 0.00 | 8 | 1015.3 |
| 20260903172750 | 81 | 90 | 9.0 | 13.0 | 0.00 | 0.00 | 0.00 | 8 | 1015.3 |
| 20260903172746 | 81 | 90 | 9.0 | 13.0 | 0.00 | 0.00 | 0.00 | 8 | 1015.3 |
| 20260903172441 | 81 | 112 | 12.0 | 18.0 | 0.00 | 0.00 | 0.00 | 8 | 1015.2 |
| 20260903172027 | 81 | 112 | 11.0 | 15.0 | 0.00 | 0.00 | 0.00 | 8 | 1015.2 |
| 20260903171608 | 82 | 135 | 10.0 | 15.0 | 0.00 | 0.00 | 0.00 | 8 | 1015.3 |
| 20260903171552 | 82 | 112 | 9.0 | 13.0 | 0.00 | 0.00 | 0.00 | 8 | 1015.1 |
| 20260903171124 | 82 | 112 | 10.0 | 13.0 | 0.00 | 0.00 | 0.00 | 8 | 1015.1 |
| 20260903170738 | 82 | 90 | 12.0 | 15.0 | 0.00 | 0.00 | 0.00 | 8 | 1015.0 |
| 20260903170707 | 82 | 90 | 12.0 | 15.0 | 0.00 | 0.00 | 0.00 | 8 | 1015.0 |
| 20260903170242 | 82 | 67 | 12.0 | 17.0 | 0.00 | 0.00 | 0.00 | 8 | 1015.1 |
| 20260903165751 | 82 | 112 | 9.0 | 15.0 | 0.00 | 0.00 | 0.00 | 8 | 1015.1 |
| 20260903165749 | 82 | 112 | 9.0 | 15.0 | 0.00 | 0.00 | 0.00 | 8 | 1015.1 |
| 20260903165427 | 83 | 90 | 8.0 | 11.0 | 0.00 | 0.00 | 0.00 | 8 | 1015.1 |
| 20260903164931 | 82 | 135 | 12.0 | 15.0 | 0.00 | 0.00 | 0.00 | 8 | 1015.0 |
| 20260903164513 | 83 | 67 | 9.0 | 12.0 | 0.00 | 0.00 | 0.00 | 8 | 1015.0 |
| 20260903164029 | 83 | 67 | 12.0 | 17.0 | 0.00 | 0.00 | 0.00 | 8 | 1015.0 |
| 20260903163612 | 83 | 90 | 9.0 | 12.0 | 0.00 | 0.00 | 0.00 | 8 | 1015.0 |
| 20260903163147 | 83 | 90 | 9.0 | 13.0 | 0.00 | 0.00 | 0.00 | 8 | 1015.0 |
| 20260903162652 | 83 | 90 | 6.0 | 9.0 | 0.00 | 0.00 | 0.00 | 8 | 1015.0 |
| 20260903162446 | 84 | 67 | 9.0 | 15.0 | 0.00 | 0.00 | 0.00 | 8 | 1015.1 |
| 20260903161956 | 84 | 67 | 9.0 | 15.0 | 0.00 | 0.00 | 0.00 | 8 | 1015.0 |
| 20260903161544 | 84 | 45 | 9.0 | 12.0 | 0.00 | 0.00 | 0.00 | 8 | 1015.1 |
| 20260903161512 | 84 | 45 | 9.0 | 12.0 | 0.00 | 0.00 | 0.00 | 8 | 1015.1 |
| 20260903161110 | 84 | 45 | 9.0 | 15.0 | 0.00 | 0.00 | 0.00 | 8 | 1015.1 |
| 20260903160640 | 84 | 112 | 8.0 | 11.0 | 0.00 | 0.00 | 0.00 | 8 | 1015.2 |
| 20260903160151 | 84 | 90 | 9.0 | 13.0 | 0.00 | 0.00 | 0.00 | 8 | 1015.1 |
| 20260903155656 | 83 | 45 | 11.0 | 17.0 | 0.00 | 0.00 | 0.00 | 8 | 1015.2 |
| 20260903155445 | 83 | 90 | 11.0 | 17.0 | 0.00 | 0.00 | 0.00 | 8 | 1015.1 |
| 20260903155159 | 84 | 90 | 10.0 | 15.0 | 0.00 | 0.00 | 0.00 | 8 | 1015.4 |
| 20260903154715 | 84 | 135 | 9.0 | 12.0 | 0.00 | 0.00 | 0.00 | 8 | 1015.4 |
| 20260903154547 | 84 | 90 | 12.0 | 15.0 | 0.00 | 0.00 | 0.00 | 8 | 1015.2 |
| 20260903154245 | 84 | 67 | 11.0 | 15.0 | 0.00 | 0.00 | 0.00 | 8 | 1015.3 |
| 20260903153753 | 84 | 90 | 10.0 | 13.0 | 0.00 | 0.00 | 0.00 | 8 | 1015.5 |
| 20260903153305 | 84 | 67 | 9.0 | 13.0 | 0.00 | 0.00 | 0.00 | 8 | 1015.5 |
| 20260903152854 | 84 | 90 | 11.0 | 15.0 | 0.00 | 0.00 | 0.00 | 7 | 1015.3 |
| 20260903152439 | 85 | 67 | 9.0 | 15.0 | 0.00 | 0.00 | 0.00 | 7 | 1015.6 |
| 20260903152346 | 85 | 90 | 6.0 | 9.0 | 0.00 | 0.00 | 0.00 | 7 | 1015.6 |
| 20260903151953 | 85 | 90 | 10.0 | 15.0 | 0.00 | 0.00 | 0.00 | 7 | 1015.4 |
| 20260903151546 | 85 | 90 | 9.0 | 12.0 | 0.00 | 0.00 | 0.00 | 7 | 1015.6 |
| 20260903151500 | 84 | 90 | 12.0 | 17.0 | 0.00 | 0.00 | 0.00 | 7 | 1015.5 |
| 20260903151103 | 85 | 67 | 9.0 | 13.0 | 0.00 | 0.00 | 0.00 | 7 | 1015.7 |
| 20260903150647 | 84 | 90 | 8.0 | 11.0 | 0.00 | 0.00 | 0.00 | 7 | 1015.7 |
| 20260903150616 | 84 | 90 | 8.0 | 11.0 | 0.00 | 0.00 | 0.00 | 7 | 1015.7 |
| 20260903150147 | 84 | 67 | 11.0 | 15.0 | 0.00 | 0.00 | 0.00 | 7 | 1015.7 |
| 20260903145656 | 84 | 67 | 14.0 | 19.0 | 0.00 | 0.00 | 0.00 | 7 | 1015.6 |
| 20260903145524 | 84 | 67 | 14.0 | 19.0 | 0.00 | 0.00 | 0.00 | 7 | 1015.6 |
| 20260903145119 | 85 | 90 | 8.0 | 13.0 | 0.00 | 0.00 | 0.00 | 7 | 1015.7 |
| 20260903144650 | 84 | 67 | 12.0 | 18.0 | 0.00 | 0.00 | 0.00 | 7 | 1015.8 |
| 20260903144210 | 84 | 90 | 10.0 | 15.0 | 0.00 | 0.00 | 0.00 | 7 | 1015.9 |
| 20260903143754 | 85 | 112 | 10.0 | 15.0 | 0.00 | 0.00 | 0.00 | 7 | 1015.8 |
| 20260903143305 | 84 | 67 | 12.0 | 20.0 | 0.00 | 0.00 | 0.00 | 7 | 1015.8 |
| 20260903142853 | 84 | 135 | 12.0 | 18.0 | 0.00 | 0.00 | 0.00 | 7 | 1016.0 |
| 20260903142739 | 84 | 135 | 12.0 | 18.0 | 0.00 | 0.00 | 0.00 | 7 | 1016.0 |
| 20260903142355 | 84 | 112 | 9.0 | 15.0 | 0.00 | 0.00 | 0.00 | 7 | 1016.0 |
| 20260903142255 | 84 | 112 | 9.0 | 15.0 | 0.00 | 0.00 | 0.00 | 7 | 1016.1 |
| 20260903141849 | 84 | 112 | 11.0 | 22.0 | 0.00 | 0.00 | 0.00 | 7 | 1016.2 |
| 20260903141449 | 84 | 67 | 12.0 | 19.0 | 0.00 | 0.00 | 0.00 | 7 | 1016.1 |
| 20260903141400 | 84 | 67 | 12.0 | 19.0 | 0.00 | 0.00 | 0.00 | 7 | 1016.3 |
| 20260903141010 | 84 | 90 | 12.0 | 17.0 | 0.00 | 0.00 | 0.00 | 7 | 1016.4 |
| 20260903140527 | 85 | 67 | 15.0 | 22.0 | 0.00 | 0.00 | 0.00 | 7 | 1016.2 |
| 20260903140110 | 85 | 67 | 13.0 | 22.0 | 0.00 | 0.00 | 0.00 | 7 | 1016.1 |
| 20260903135701 | 85 | 112 | 11.0 | 17.0 | 0.00 | 0.00 | 0.00 | 7 | 1016.2 |
| 20260903135439 | 85 | 90 | 15.0 | 19.0 | 0.00 | 0.00 | 0.00 | 7 | 1016.3 |
| 20260903135013 | 85 | 90 | 12.0 | 15.0 | 0.00 | 0.00 | 0.00 | 7 | 1016.3 |
| 20260903134526 | 86 | 45 | 11.0 | 15.0 | 0.00 | 0.00 | 0.00 | 7 | 1016.4 |
| 20260903134100 | 86 | 90 | 12.0 | 17.0 | 0.00 | 0.00 | 0.00 | 7 | 1016.3 |
| 20260903133610 | 87 | 90 | 8.0 | 15.0 | 0.00 | 0.00 | 0.00 | 7 | 1016.4 |
| 20260903133142 | 86 | 45 | 10.0 | 15.0 | 0.00 | 0.00 | 0.00 | 7 | 1016.4 |
| 20260903132651 | 86 | 90 | 10.0 | 17.0 | 0.00 | 0.00 | 0.00 | 7 | 1016.5 |
| 20260903132439 | 86 | 67 | 10.0 | 13.0 | 0.00 | 0.00 | 0.00 | 7 | 1016.4 |
| 20260903131946 | 85 | 67 | 12.0 | 15.0 | 0.00 | 0.00 | 0.00 | 7 | 1016.5 |
| 20260903131544 | 86 | 90 | 9.0 | 15.0 | 0.00 | 0.00 | 0.00 | 7 | 1016.5 |
| 20260903131104 | 87 | 112 | 9.0 | 15.0 | 0.00 | 0.00 | 0.00 | 7 | 1016.5 |
| 20260903130616 | 86 | 67 | 11.0 | 18.0 | 0.00 | 0.00 | 0.00 | 7 | 1016.7 |
| 20260903130147 | 86 | 67 | 9.0 | 12.0 | 0.00 | 0.00 | 0.00 | 7 | 1016.7 |
| 20260903125658 | 86 | 112 | 11.0 | 15.0 | 0.00 | 0.00 | 0.00 | 7 | 1016.7 |
| 20260903125441 | 86 | 67 | 9.0 | 11.0 | 0.00 | 0.00 | 0.00 | 7 | 1016.7 |
| 20260903124951 | 86 | 90 | 9.0 | 13.0 | 0.00 | 0.00 | 0.00 | 7 | 1016.8 |
| 20260903124540 | 85 | 67 | 10.0 | 15.0 | 0.00 | 0.00 | 0.00 | 7 | 1016.8 |
| 20260903124106 | 85 | 90 | 11.0 | 17.0 | 0.00 | 0.00 | 0.00 | 7 | 1016.7 |
| 20260903123630 | 86 | 112 | 12.0 | 15.0 | 0.00 | 0.00 | 0.00 | 7 | 1016.8 |
| 20260903123206 | 86 | 112 | 6.0 | 9.0 | 0.00 | 0.00 | 0.00 | 7 | 1016.8 |
| 20260903122755 | 85 | 90 | 12.0 | 18.0 | 0.00 | 0.00 | 0.00 | 7 | 1016.8 |
| 20260903122259 | 86 | 90 | 8.0 | 12.0 | 0.00 | 0.00 | 0.00 | 7 | 1016.9 |
| 20260903121846 | 85 | 135 | 9.0 | 15.0 | 0.00 | 0.00 | 0.00 | 7 | 1016.9 |
| 20260903121411 | 86 | 90 | 9.0 | 13.0 | 0.00 | 0.00 | 0.00 | 7 | 1017.0 |